Location: Ferchesar
(52.6477°N, 12.4298°E)
Time: 05:15:54
(UTC+02:00)

Vanguard 3 - Pass Details

Date: 06 March 2021
Orbit: 508 x 3262 km, 33.3° (Epoch: 15 April)

Event Time Altitude Azimuth Distance (km) Brightness Sun altitude
Rises 18:52:05 0° 265° (W) 6,976 14.1 -8.9°
Reaches altitude 10° 18:58:16 10° 255° (WSW) 5,632 12.7 -9.8°
Maximum altitude 19:09:46 25° 210° (SSW) 3,639 10.7 -11.6°
Drops below altitude 10° 19:17:53 10° 160° (SSE) 3,858 10.3 -12.8°
Sets 19:21:10 0° 147° (SSE) 4,454 10.5 -13.3°
